When you browse on this site, cookies collect data to enhance your experience and personalize the content and advertising you see.
Visit our Privacy Policy to learn more. By continuing to use the site, you agree to this use of cookies and data.
  • In Portugal
  • List of Countries
  • For 7 days
  • Water Temperature
  • Satellite Maps
  • Weather Map
  • Weather Widgets
  • user-avatar
    Login

    Hourly Weather Ciuslice

    Today, 20 January, Sunday

    Time Temperature Precipitation Wind Pressure Humidity
    00:00 -3°C° 0 mm 1 mps 745 mmHg 82%
    01:00 -3°C° 0 mm 1 mps 745 mmHg 81%
    02:00 -3°C° 0 mm 1 mps 745 mmHg 81%
    03:00 -3°C° 0 mm 1 mps 744 mmHg 82%
    04:00 -4°C° 0 mm 1 mps 744 mmHg 83%
    05:00 -4°C° 0 mm 1 mps 744 mmHg 83%
    06:00 -4°C° 0 mm 1 mps 744 mmHg 84%
    07:00 -4°C° 0 mm 1 mps 744 mmHg 84%
    08:00 -4°C° 0 mm 1 mps 744 mmHg 82%
    09:00 -3°C° 0 mm 1 mps 744 mmHg 80%
    10:00 -3°C° 0 mm 1 mps 744 mmHg 78%
    11:00 -2°C° 0 mm 1 mps 743 mmHg 75%
    12:00 -2°C° 0 mm 1 mps 743 mmHg 72%
    13:00 -1°C° 0 mm 1 mps 743 mmHg 69%
    14:00 -1°C° 0 mm 1 mps 743 mmHg 71%
    15:00 -2°C° 0 mm 1 mps 743 mmHg 74%
    16:00 -2°C° 0 mm 1 mps 743 mmHg 77%
    17:00 -2°C° 0 mm 1 mps 743 mmHg 78%
    18:00 -3°C° 0 mm 1 mps 744 mmHg 79%
    19:00 -3°C° 0 mm 1 mps 744 mmHg 80%
    20:00 -3°C° 0 mm 1 mps 744 mmHg 80%
    21:00 -3°C° 0 mm 1 mps 745 mmHg 80%
    22:00 -3°C° 0 mm 1 mps 745 mmHg 80%
    23:00 -3°C° 0 mm 1 mps 745 mmHg 80%

    Tomorrow, 21 January, Monday

    Time Temperature Precipitation Wind Pressure Humidity
    00:00 -4°C° 0 mm 1 mps 746 mmHg 80%
    01:00 -4°C° 0 mm 1 mps 746 mmHg 79%
    02:00 -4°C° 0 mm 1 mps 746 mmHg 79%
    03:00 -4°C° 0 mm 1 mps 746 mmHg 79%
    04:00 -6°C° 0 mm 2 mps 746 mmHg 79%
    05:00 -6°C° 0 mm 2 mps 747 mmHg 79%
    06:00 -6°C° 0 mm 2 mps 747 mmHg 79%
    07:00 -6°C° 0 mm 2 mps 747 mmHg 79%
    08:00 -6°C° 0 mm 2 mps 747 mmHg 77%
    09:00 -5°C° 0 mm 2 mps 747 mmHg 74%
    10:00 -4°C° 0 mm 2 mps 748 mmHg 71%
    11:00 -2°C° 0 mm 1 mps 747 mmHg 69%
    12:00 -1°C° 0 mm 1 mps 747 mmHg 66%
    13:00 0°C° 0 mm 1 mps 747 mmHg 64%
    14:00 -1°C° 0 mm 1 mps 747 mmHg 66%
    15:00 -1°C° 0 mm 1 mps 747 mmHg 69%
    16:00 -3°C° 0 mm 0 mps 747 mmHg 71%
    17:00 -3°C° 0 mm 0 mps 746 mmHg 72%
    18:00 -2°C° 0 mm 1 mps 746 mmHg 73%
    19:00 -3°C° 0 mm 1 mps 746 mmHg 74%
    20:00 -3°C° 0 mm 1 mps 746 mmHg 74%
    21:00 -3°C° 0 mm 1 mps 746 mmHg 75%
    22:00 -3°C° 0 mm 1 mps 746 mmHg 75%
    23:00 -3°C° 0 mm 1 mps 746 mmHg 76%

    Day after tomorrow, 22 January, Tuesday

    Time Temperature Precipitation Wind Pressure Humidity
    00:00 -4°C° 0 mm 1 mps 746 mmHg 76%
    01:00 -4°C° 0 mm 1 mps 745 mmHg 76%
    02:00 -4°C° 0 mm 1 mps 745 mmHg 76%
    03:00 -4°C° 0 mm 1 mps 744 mmHg 76%
    04:00 -4°C° 0 mm 1 mps 744 mmHg 75%
    05:00 -6°C° 0 mm 1 mps 744 mmHg 74%
    06:00 -6°C° 0 mm 1 mps 743 mmHg 74%
    07:00 -6°C° 0 mm 1 mps 743 mmHg 73%
    08:00 -4°C° 0 mm 1 mps 743 mmHg 70%
    09:00 -3°C° 0 mm 1 mps 743 mmHg 66%
    10:00 -3°C° 0 mm 1 mps 743 mmHg 63%
    11:00 -2°C° 0 mm 1 mps 742 mmHg 61%
    12:00 -1°C° 0 mm 1 mps 742 mmHg 59%
    13:00 -1°C° 0 mm 1 mps 741 mmHg 57%
    14:00 -1°C° 0 mm 1 mps 741 mmHg 61%
    15:00 -4°C° 0 mm 2 mps 740 mmHg 66%
    16:00 -4°C° 0 mm 2 mps 740 mmHg 70%
    17:00 -4°C° 0 mm 2 mps 739 mmHg 74%
    18:00 -6°C° 0 mm 3 mps 739 mmHg 78%
    19:00 -6°C° 0 mm 3 mps 739 mmHg 82%
    20:00 -6°C° 0 mm 3 mps 739 mmHg 84%
    21:00 -6°C° 0 mm 3 mps 738 mmHg 85%
    22:00 -7°C° 0 mm 3 mps 738 mmHg 87%
    23:00 -8°C° 0 mm 4 mps 738 mmHg 87%

    23 January, Wednesday

    Time Temperature Precipitation Wind Pressure Humidity
    00:00 -8°C° 0 mm 4 mps 737 mmHg 88%
    01:00 -8°C° 0 mm 4 mps 737 mmHg 89%
    02:00 -8°C° 0 mm 4 mps 736 mmHg 90%
    03:00 -9°C° 0 mm 4 mps 736 mmHg 91%
    04:00 -10°C° 0 mm 5 mps 735 mmHg 92%
    05:00 -10°C° 0 mm 5 mps 735 mmHg 91%
    06:00 -10°C° 0 mm 5 mps 735 mmHg 90%
    07:00 -10°C° 0 mm 5 mps 735 mmHg 89%
    08:00 -8°C° 0 mm 5 mps 735 mmHg 87%
    09:00 -7°C° 0 mm 5 mps 735 mmHg 85%
    10:00 -7°C° 0 mm 5 mps 735 mmHg 83%
    11:00 -6°C° 0 mm 5 mps 735 mmHg 82%
    12:00 -5°C° 0 mm 5 mps 734 mmHg 81%
    13:00 -4°C° 0 mm 5 mps 734 mmHg 80%
    14:00 -4°C° 0 mm 5 mps 734 mmHg 83%
    15:00 -3°C° 0 mm 4 mps 734 mmHg 86%
    16:00 -3°C° 0 mm 4 mps 734 mmHg 89%
    17:00 -3°C° 0 mm 4 mps 734 mmHg 91%
    18:00 -3°C° 0 mm 4 mps 734 mmHg 92%
    19:00 -3°C° 0 mm 4 mps 734 mmHg 94%
    20:00 -2°C° 0.1 mm 3 mps 734 mmHg 94%
    21:00 -2°C° 0.1 mm 3 mps 734 mmHg 95%
    22:00 -2°C° 0.1 mm 3 mps 735 mmHg 96%
    23:00 -2°C° 0.1 mm 2 mps 735 mmHg 96%

    24 January, Thursday

    Time Temperature Precipitation Wind Pressure Humidity
    00:00 -2°C° 0.1 mm 2 mps 735 mmHg 96%
    01:00 -2°C° 0.1 mm 2 mps 735 mmHg 97%
    02:00 0°C° 0.1 mm 1 mps 735 mmHg 97%
    03:00 0°C° 0.1 mm 1 mps 735 mmHg 97%
    04:00 0°C° 0.1 mm 1 mps 735 mmHg 97%
    05:00 0°C° 0.1 mm 1 mps 735 mmHg 97%
    06:00 0°C° 0.1 mm 1 mps 735 mmHg 96%
    07:00 0°C° 0.1 mm 1 mps 735 mmHg 96%
    08:00 0°C° 0.1 mm 1 mps 735 mmHg 95%
    09:00 +1°C° 0.1 mm 1 mps 736 mmHg 95%
    10:00 +1°C° 0.1 mm 1 mps 736 mmHg 94%
    11:00 +1°C° 0.1 mm 1 mps 736 mmHg 93%
    12:00 +1°C° 0.1 mm 1 mps 736 mmHg 93%
    13:00 +1°C° 0.1 mm 2 mps 736 mmHg 93%
    14:00 -1°C° 0.1 mm 2 mps 736 mmHg 93%
    15:00 -1°C° 0.1 mm 2 mps 736 mmHg 94%
    16:00 -1°C° 0.1 mm 2 mps 736 mmHg 95%
    17:00 -1°C° 0.1 mm 2 mps 736 mmHg 95%
    18:00 -1°C° 0.1 mm 2 mps 737 mmHg 95%
    19:00 -1°C° 0.1 mm 2 mps 737 mmHg 95%
    20:00 -1°C° 0.1 mm 2 mps 737 mmHg 94%
    21:00 -1°C° 0.1 mm 3 mps 737 mmHg 94%
    22:00 -1°C° 0.1 mm 3 mps 738 mmHg 94%
    23:00 -1°C° 0.1 mm 3 mps 738 mmHg 93%

    25 January, Friday

    Time Temperature Precipitation Wind Pressure Humidity
    00:00 -2°C° 0.1 mm 3 mps 738 mmHg 93%
    01:00 -2°C° 0.1 mm 3 mps 738 mmHg 93%
    02:00 -2°C° 0.1 mm 3 mps 738 mmHg 92%
    03:00 -2°C° 0.1 mm 3 mps 738 mmHg 92%
    04:00 -2°C° 0.1 mm 3 mps 738 mmHg 92%
    05:00 -2°C° 0.1 mm 3 mps 738 mmHg 92%
    06:00 -3°C° 0.1 mm 4 mps 739 mmHg 92%
    07:00 -3°C° 0.1 mm 4 mps 739 mmHg 91%
    08:00 -3°C° 0.1 mm 4 mps 739 mmHg 90%
    09:00 -3°C° 0.1 mm 4 mps 740 mmHg 89%
    10:00 -2°C° 0.1 mm 4 mps 740 mmHg 89%
    11:00 -2°C° 0.1 mm 4 mps 740 mmHg 88%
    12:00 -2°C° 0.1 mm 4 mps 740 mmHg 87%
    13:00 -2°C° 0.1 mm 4 mps 740 mmHg 86%
    14:00 -2°C° 0.1 mm 4 mps 741 mmHg 86%
    15:00 -3°C° 0.1 mm 4 mps 741 mmHg 86%
    16:00 -3°C° 0.1 mm 4 mps 741 mmHg 86%
    17:00 -3°C° 0.1 mm 4 mps 742 mmHg 86%
    18:00 -3°C° 0.1 mm 4 mps 742 mmHg 86%
    19:00 -3°C° 0.1 mm 4 mps 743 mmHg 86%
    20:00 -4°C° 0.1 mm 4 mps 743 mmHg 85%
    21:00 -4°C° 0.1 mm 4 mps 743 mmHg 84%
    22:00 -4°C° 0.1 mm 4 mps 744 mmHg 83%
    23:00 -4°C° 0 mm 4 mps 744 mmHg 84%
    Show more